Location: ??????
(38.0131°N, 23.7723°E)
Time: 05:52:10
(UTC+00:00)

Okean O Rocket - Pass Details

Date: 17 October 2021
Orbit: 623 x 643 km, 98.2° (Epoch: 28 November)

Event Time Altitude Azimuth Distance (km) Brightness Sun altitude
Rises 16:37:38 0° 164° (SSE) 2,889 4.9 -11.2°
Reaches altitude 10° 16:39:49 10° 163° (SSE) 1,987 4.0 -11.6°
Maximum altitude 16:44:08 83° 76° (ENE) 633 1.5 -12.5°
Drops below altitude 10° 16:48:30 10° 349° (N) 2,003 4.3 -13.4°
Sets 16:50:42 0° 349° (NNW) 2,915 5.1 -13.8°
